User: anonymous   Login
Location: Prague
(50.0830°N, 14.4670°E)
Time: 11:30:32
(UTC+01:00)
Language:

ESTCUBE 1 - Orbit

View from above orbital plane
View from above orbital plane
View from above satellite
View from above satellite

Ground track
Ground track

The orbit data is extracted from the following two-line orbital elements,

1 39161U 13021C   21334.96483700  .00000283  00000-0  52222-4 0  9997
2 39161  97.9289  52.2386 0009034 346.7650  13.3334 14.72591377460259
Epoch (UTC): 30 November 2021 23:09:21
Eccentricity: 0.0009034
inclination: 97.9289°
perigee height: 646 km
apogee height: 659 km
right ascension of ascending node: 52.2386°
argument of perigee: 346.7650°
revolutions per day: 14.72591377
mean anomaly at epoch: 13.3334°
orbit number at epoch: 46025

The dashed part of the orbit path shows where the satellite is in the earth's shadow,  

DLR